Time,TemperatureF,DewpointF,PressureIn,WindDirection,WindDirectionDegrees,WindSpeedMPH,WindSpeedGustMPH,Humidity,HourlyPrecipIn,Conditions,Clouds,dailyrainin,SoftwareType,DateUTC
2013-04-20 00:09:00,31.2,23.0,29.95,North,5,0.0,0.0,73,0.00,,,0.00,weatherlink.com 1.10,2013-04-20 05:09:00,
2013-04-20 00:24:00,31.0,23.0,29.95,North,5,0.0,0.0,73,0.00,,,0.00,weatherlink.com 1.10,2013-04-20 05:24:00,
2013-04-20 00:39:00,30.4,23.0,29.96,North,5,0.0,0.0,75,0.00,,,0.00,weatherlink.com 1.10,2013-04-20 05:39:00,
2013-04-20 00:54:00,30.0,23.0,29.96,North,5,0.0,0.0,76,0.00,,,0.00,weatherlink.com 1.10,2013-04-20 05:54:00,
2013-04-20 01:09:00,29.4,23.0,29.96,North,5,0.0,0.0,77,0.00,,,0.00,weatherlink.com 1.10,2013-04-20 06:09:00,
2013-04-20 01:24:00,29.2,23.0,29.96,North,5,0.0,0.0,78,0.00,,,0.00,weatherlink.com 1.10,2013-04-20 06:24:00,
2013-04-20 01:39:00,28.8,23.0,29.96,North,5,0.0,0.0,79,0.00,,,0.00,weatherlink.com 1.10,2013-04-20 06:39:00,
2013-04-20 01:54:00,28.9,23.0,29.96,North,5,0.0,0.0,79,0.00,,,0.00,weatherlink.com 1.10,2013-04-20 06:54:00,
2013-04-20 02:09:00,28.5,23.0,29.97,North,5,0.0,0.0,79,0.00,,,0.00,weatherlink.com 1.10,2013-04-20 07:09:00,
2013-04-20 02:24:00,28.0,23.0,29.97,North,5,0.0,0.0,81,0.00,,,0.00,weatherlink.com 1.10,2013-04-20 07:24:00,
2013-04-20 02:39:00,27.6,23.0,29.98,North,5,0.0,0.0,83,0.00,,,0.00,weatherlink.com 1.10,2013-04-20 07:39:00,
2013-04-20 02:54:00,27.6,23.0,29.98,North,5,0.0,0.0,83,0.00,,,0.00,weatherlink.com 1.10,2013-04-20 07:54:00,
2013-04-20 03:09:00,27.6,23.0,29.97,North,5,0.0,0.0,82,0.00,,,0.00,weatherlink.com 1.10,2013-04-20 08:09:00,
2013-04-20 03:24:00,27.7,23.0,29.98,North,5,0.0,0.0,82,0.00,,,0.00,weatherlink.com 1.10,2013-04-20 08:24:00,
2013-04-20 03:39:00,27.8,23.0,29.98,North,5,0.0,0.0,81,0.00,,,0.00,weatherlink.com 1.10,2013-04-20 08:39:00,
2013-04-20 03:54:00,27.7,23.0,29.98,North,5,0.0,0.0,81,0.00,,,0.00,weatherlink.com 1.10,2013-04-20 08:54:00,
2013-04-20 04:09:00,27.4,23.0,29.98,North,5,0.0,0.0,82,0.00,,,0.00,weatherlink.com 1.10,2013-04-20 09:09:00,
2013-04-20 04:24:00,27.4,22.0,29.99,North,5,0.0,0.0,81,0.00,,,0.00,weatherlink.com 1.10,2013-04-20 09:24:00,
2013-04-20 04:39:00,27.2,22.0,29.99,North,5,0.0,0.0,82,0.00,,,0.00,weatherlink.com 1.10,2013-04-20 09:39:00,
2013-04-20 04:54:00,27.0,22.0,30.00,North,5,0.0,0.0,82,0.00,,,0.00,weatherlink.com 1.10,2013-04-20 09:54:00,
2013-04-20 05:09:00,26.9,22.0,30.00,North,5,0.0,0.0,82,0.00,,,0.00,weatherlink.com 1.10,2013-04-20 10:09:00,
2013-04-20 05:24:00,26.4,22.0,30.01,North,5,0.0,0.0,82,0.00,,,0.00,weatherlink.com 1.10,2013-04-20 10:24:00,
2013-04-20 05:39:00,26.0,22.0,30.01,North,5,0.0,0.0,84,0.00,,,0.00,weatherlink.com 1.10,2013-04-20 10:39:00,
2013-04-20 05:54:00,25.5,21.0,30.01,North,5,0.0,0.0,84,0.00,,,0.00,weatherlink.com 1.10,2013-04-20 10:54:00,
2013-04-20 06:10:00,25.1,21.0,30.02,North,5,0.0,0.0,85,0.00,,,0.00,weatherlink.com 1.10,2013-04-20 11:10:00,
2013-04-20 06:25:00,25.1,22.0,30.02,North,5,0.0,0.0,86,0.00,,,0.00,weatherlink.com 1.10,2013-04-20 11:25:00,
2013-04-20 06:40:00,24.9,21.0,30.03,North,5,0.0,0.0,86,0.00,,,0.00,weatherlink.com 1.10,2013-04-20 11:40:00,
2013-04-20 06:55:00,25.2,22.0,30.04,North,5,0.0,0.0,86,0.00,,,0.00,weatherlink.com 1.10,2013-04-20 11:55:00,
2013-04-20 07:10:00,25.2,22.0,30.03,North,5,0.0,0.0,87,0.00,,,0.00,weatherlink.com 1.10,2013-04-20 12:10:00,
2013-04-20 07:25:00,25.8,23.0,30.04,North,5,0.0,0.0,88,0.00,,,0.00,weatherlink.com 1.10,2013-04-20 12:25:00,
2013-04-20 07:40:00,27.6,23.0,30.05,North,5,0.0,1.0,83,0.00,,,0.00,weatherlink.com 1.10,2013-04-20 12:40:00,
2013-04-20 07:55:00,28.9,23.0,30.06,North,9,0.0,2.0,79,0.00,,,0.00,weatherlink.com 1.10,2013-04-20 12:55:00,
2013-04-20 08:10:00,30.2,24.0,30.07,North,9,0.0,2.0,77,0.00,,,0.00,weatherlink.com 1.10,2013-04-20 13:10:00,
2013-04-20 08:25:00,31.2,23.0,30.07,North,9,0.0,1.0,73,0.00,,,0.00,weatherlink.com 1.10,2013-04-20 13:25:00,
2013-04-20 08:40:00,32.4,24.0,30.07,North,9,0.0,1.0,72,0.00,,,0.00,weatherlink.com 1.10,2013-04-20 13:40:00,
2013-04-20 08:55:00,32.8,23.0,30.06,East,86,3.0,3.0,68,0.00,,,0.00,weatherlink.com 1.10,2013-04-20 13:55:00,
2013-04-20 09:10:00,32.5,21.0,30.07,SSE,163,0.0,4.0,63,0.00,,,0.00,weatherlink.com 1.10,2013-04-20 14:10:00,
2013-04-20 09:25:00,32.2,21.0,30.08,SSE,163,0.0,1.0,63,0.00,,,0.00,weatherlink.com 1.10,2013-04-20 14:25:00,
2013-04-20 09:40:00,32.3,21.0,30.09,SSE,162,0.0,4.0,63,0.00,,,0.00,weatherlink.com 1.10,2013-04-20 14:40:00,
2013-04-20 09:55:00,32.7,21.0,30.09,SSE,162,0.0,1.0,62,0.00,,,0.00,weatherlink.com 1.10,2013-04-20 14:55:00,
2013-04-20 10:10:00,33.4,22.0,30.09,SSE,162,0.0,1.0,62,0.00,,,0.00,weatherlink.com 1.10,2013-04-20 15:10:00,
2013-04-20 10:25:00,33.5,22.0,30.09,SSE,162,0.0,3.0,62,0.00,,,0.00,weatherlink.com 1.10,2013-04-20 15:25:00,
2013-04-20 10:40:00,34.0,21.0,30.10,South,173,0.0,4.0,60,0.00,,,0.00,weatherlink.com 1.10,2013-04-20 15:40:00,
2013-04-20 10:55:00,34.8,22.0,30.10,SW,215,0.0,3.0,60,0.00,,,0.00,weatherlink.com 1.10,2013-04-20 15:55:00,
2013-04-20 11:10:00,35.4,21.0,30.10,South,171,0.0,6.0,57,0.00,,,0.00,weatherlink.com 1.10,2013-04-20 16:10:00,
2013-04-20 11:25:00,36.2,21.0,30.10,South,178,0.0,6.0,54,0.00,,,0.00,weatherlink.com 1.10,2013-04-20 16:25:00,
2013-04-20 11:40:00,36.2,20.0,30.10,SSW,207,0.0,6.0,53,0.00,,,0.00,weatherlink.com 1.10,2013-04-20 16:40:00,
2013-04-20 11:55:00,37.7,23.0,30.09,SSE,157,0.0,5.0,55,0.00,,,0.00,weatherlink.com 1.10,2013-04-20 16:55:00,
2013-04-20 12:10:00,38.1,23.0,30.09,South,188,1.0,6.0,54,0.00,,,0.00,weatherlink.com 1.10,2013-04-20 17:10:00,
2013-04-20 12:25:00,39.6,23.0,30.08,SSE,159,0.0,6.0,52,0.00,,,0.00,weatherlink.com 1.10,2013-04-20 17:25:00,
2013-04-20 12:40:00,40.6,23.0,30.07,SE,131,1.0,6.0,50,0.00,,,0.00,weatherlink.com 1.10,2013-04-20 17:40:00,
2013-04-20 12:55:00,40.6,23.0,30.07,SSE,163,1.0,6.0,49,0.00,,,0.00,weatherlink.com 1.10,2013-04-20 17:55:00,
2013-04-20 13:11:00,41.0,21.0,30.06,SE,128,0.0,8.0,45,0.00,,,0.00,weatherlink.com 1.10,2013-04-20 18:11:00,
2013-04-20 13:26:00,40.7,21.0,30.05,SSE,165,0.0,6.0,45,0.00,,,0.00,weatherlink.com 1.10,2013-04-20 18:26:00,
2013-04-20 13:41:00,40.3,20.0,30.05,SSE,155,0.0,6.0,44,0.00,,,0.00,weatherlink.com 1.10,2013-04-20 18:41:00,
2013-04-20 13:56:00,41.3,21.0,30.05,South,175,0.0,7.0,45,0.00,,,0.00,weatherlink.com 1.10,2013-04-20 18:56:00,
2013-04-20 14:11:00,42.7,24.0,30.04,South,181,0.0,5.0,47,0.00,,,0.00,weatherlink.com 1.10,2013-04-20 19:11:00,
2013-04-20 14:26:00,42.6,22.0,30.03,SE,130,5.0,9.0,44,0.00,,,0.00,weatherlink.com 1.10,2013-04-20 19:26:00,
2013-04-20 14:41:00,43.5,23.0,30.03,SE,144,3.0,8.0,44,0.00,,,0.00,weatherlink.com 1.10,2013-04-20 19:41:00,
2013-04-20 14:56:00,44.1,23.0,30.02,South,182,2.0,8.0,43,0.00,,,0.00,weatherlink.com 1.10,2013-04-20 19:56:00,
2013-04-20 15:11:00,44.4,22.0,30.02,SW,232,1.0,10.0,42,0.00,,,0.00,weatherlink.com 1.10,2013-04-20 20:11:00,
2013-04-20 15:26:00,45.3,24.0,30.01,SSW,202,1.0,6.0,43,0.00,,,0.00,weatherlink.com 1.10,2013-04-20 20:26:00,
2013-04-20 15:41:00,45.9,24.0,30.01,SE,139,0.0,9.0,42,0.00,,,0.00,weatherlink.com 1.10,2013-04-20 20:41:00,
2013-04-20 15:56:00,45.7,24.0,30.01,SSW,196,0.0,8.0,42,0.00,,,0.00,weatherlink.com 1.10,2013-04-20 20:56:00,
2013-04-20 16:11:00,46.3,25.0,30.00,SE,137,4.0,8.0,43,0.00,,,0.00,weatherlink.com 1.10,2013-04-20 21:11:00,
2013-04-20 16:26:00,46.4,25.0,30.00,SSE,154,1.0,9.0,43,0.00,,,0.00,weatherlink.com 1.10,2013-04-20 21:26:00,
2013-04-20 16:41:00,46.8,25.0,30.00,ESE,117,2.0,9.0,43,0.00,,,0.00,weatherlink.com 1.10,2013-04-20 21:41:00,
2013-04-20 16:56:00,46.9,25.0,30.00,SE,142,0.0,8.0,42,0.00,,,0.00,weatherlink.com 1.10,2013-04-20 21:56:00,
2013-04-20 17:11:00,46.7,25.0,29.99,South,191,5.0,9.0,42,0.00,,,0.00,weatherlink.com 1.10,2013-04-20 22:11:00,
2013-04-20 17:26:00,46.8,25.0,29.98,SE,129,4.0,11.0,42,0.00,,,0.00,weatherlink.com 1.10,2013-04-20 22:26:00,
2013-04-20 17:41:00,46.5,24.0,29.98,SE,127,5.0,9.0,42,0.00,,,0.00,weatherlink.com 1.10,2013-04-20 22:41:00,
2013-04-20 17:56:00,46.3,25.0,29.98,SSW,193,1.0,7.0,43,0.00,,,0.00,weatherlink.com 1.10,2013-04-20 22:56:00,
2013-04-20 18:11:00,46.1,24.0,29.98,South,184,0.0,12.0,42,0.00,,,0.00,weatherlink.com 1.10,2013-04-20 23:11:00,
2013-04-20 18:26:00,46.0,24.0,29.98,SSE,151,9.0,9.0,42,0.00,,,0.00,weatherlink.com 1.10,2013-04-20 23:26:00,
2013-04-20 18:41:00,46.0,25.0,29.97,ESE,103,4.0,10.0,44,0.00,,,0.00,weatherlink.com 1.10,2013-04-20 23:41:00,
2013-04-20 18:56:00,45.8,25.0,29.98,SE,138,4.0,8.0,44,0.00,,,0.00,weatherlink.com 1.10,2013-04-20 23:56:00,
2013-04-20 19:11:00,45.8,25.0,29.97,SSE,163,3.0,10.0,44,0.00,,,0.00,weatherlink.com 1.10,2013-04-21 00:11:00,
2013-04-20 19:26:00,45.6,25.0,29.96,South,180,1.0,9.0,45,0.00,,,0.00,weatherlink.com 1.10,2013-04-21 00:26:00,
2013-04-20 19:41:00,45.5,26.0,29.97,SW,236,0.0,9.0,46,0.00,,,0.00,weatherlink.com 1.10,2013-04-21 00:41:00,
2013-04-20 19:56:00,45.3,25.0,29.97,SE,142,3.0,9.0,46,0.00,,,0.00,weatherlink.com 1.10,2013-04-21 00:56:00,
2013-04-20 20:11:00,45.1,26.0,29.96,SSE,155,6.0,8.0,48,0.00,,,0.00,weatherlink.com 1.10,2013-04-21 01:11:00,
2013-04-20 20:26:00,45.0,26.0,29.97,SSE,162,0.0,10.0,48,0.00,,,0.00,weatherlink.com 1.10,2013-04-21 01:26:00,
2013-04-20 20:41:00,44.8,26.0,29.99,SSE,156,3.0,10.0,48,0.00,,,0.00,weatherlink.com 1.10,2013-04-21 01:41:00,
2013-04-20 20:56:00,44.8,27.0,29.99,South,190,0.0,10.0,49,0.00,,,0.00,weatherlink.com 1.10,2013-04-21 01:56:00,
2013-04-20 21:11:00,44.7,26.0,29.99,SSE,165,4.0,11.0,49,0.00,,,0.00,weatherlink.com 1.10,2013-04-21 02:11:00,
2013-04-20 21:26:00,44.5,27.0,29.99,SSE,162,3.0,8.0,51,0.00,,,0.00,weatherlink.com 1.10,2013-04-21 02:26:00,
2013-04-20 21:41:00,44.4,27.0,29.99,SE,145,8.0,9.0,51,0.00,,,0.00,weatherlink.com 1.10,2013-04-21 02:41:00,
2013-04-20 21:56:00,44.5,28.0,29.99,SSE,162,3.0,7.0,52,0.00,,,0.00,weatherlink.com 1.10,2013-04-21 02:56:00,
2013-04-20 22:11:00,44.6,28.0,29.99,SE,137,2.0,11.0,52,0.00,,,0.00,weatherlink.com 1.10,2013-04-21 03:11:00,
2013-04-20 22:26:00,44.6,28.0,29.99,SE,137,5.0,8.0,52,0.00,,,0.00,weatherlink.com 1.10,2013-04-21 03:26:00,
2013-04-20 22:41:00,44.6,28.0,29.99,SSE,160,3.0,10.0,52,0.00,,,0.00,weatherlink.com 1.10,2013-04-21 03:41:00,
2013-04-20 22:56:00,44.9,29.0,29.98,South,190,1.0,14.0,53,0.00,,,0.00,weatherlink.com 1.10,2013-04-21 03:56:00,
2013-04-20 23:11:00,44.9,29.0,29.98,SE,135,5.0,8.0,54,0.00,,,0.00,weatherlink.com 1.10,2013-04-21 04:11:00,
2013-04-20 23:26:00,44.8,29.0,29.98,South,170,2.0,10.0,54,0.00,,,0.00,weatherlink.com 1.10,2013-04-21 04:26:00,
2013-04-20 23:41:00,44.8,29.0,29.98,SSW,205,0.0,5.0,54,0.00,,,0.00,weatherlink.com 1.10,2013-04-21 04:41:00,
2013-04-20 23:56:00,44.8,29.0,29.99,South,180,0.0,4.0,55,0.00,,,0.00,weatherlink.com 1.10,2013-04-21 04:56:00,